New Braunfels, TX

1:12 PM CDT on March 29, 2017 (GMT -0500)
New Braunfels Municipal

Weather History for KBAZ - January, 2013

Change the Weather History Date:

Monday, January 28, 2013

  Actual Average (KRND) Record (KRND)
Temperature  
Mean Temperature 72 °F -  
Max Temperature 75 °F 61 °F 79 °F (2015)
Min Temperature 68 °F 42 °F 24 °F (2004)
Cooling Degree Days 6    
Growing Degree Days 22 (Base 50)    
Moisture  
Dew Point 65 °F    
Average Humidity 79    
Maximum Humidity 94    
Minimum Humidity 67    
Precipitation  
Precipitation 0.00 in - - ()
Sea Level Pressure  
Sea Level Pressure 29.95 in    
Wind  
Wind Speed 15 mph (South)    
Max Wind Speed 25 mph    
Max Gust Speed 30 mph    
Visibility 10 miles    
Events      
Averages and records for this station are not official NWS values.
T = Trace of Precipitation, MM = Missing Value Source: NWS Daily Summary

Daily Weather History Graph

Daily Weather History Graph

Search for Another Location

Airport or City:

Trip Planner

Search our weather history database for the weather conditions in past years. The results will help you decide how hot, cold, wet, or windy it might be!

Date:

Astronomy

Jan. 28, 2013 Rise Set
Actual Time 7:23 AM CST 6:06 PM CST
Civil Twilight 6:58 AM CST 6:31 PM CST
Nautical Twilight 6:30 AM CST 7:00 PM CST
Astronomical Twilight 6:01 AM CST 7:28 PM CST
Moon 7:50 PM CST (1/28) 8:01 AM CST (1/28)
Length of Visible Light 11h 33m
Length of Day
10h 42m
Full, 98% of the Moon is Illuminated
Jan 28
Full
Feb 3
Last Quarter
Feb 10
New
Feb 17
First Quarter
Feb 25
Full

Hourly Weather History & Observations

Time (CST) Temp. Dew Point Humidity Pressure Visibility Wind Dir Wind Speed Gust Speed Precip Events Conditions
12:03 AM 69.8 °F 64.4 °F 83% 30.02 in 10.0 mi South 15.0 mph - 0.00 in   Overcast
12:14 AM 69.8 °F 64.4 °F 83% 30.02 in 10.0 mi South 17.3 mph - 0.00 in   Overcast
12:51 AM 70.0 °F 64.9 °F 84% 30.00 in 10.0 mi South 16.1 mph - 0.00 in   Overcast
1:51 AM 70.0 °F 64.9 °F 84% 30.00 in 10.0 mi South 10.4 mph - N/A   Overcast
2:51 AM 70.0 °F 64.9 °F 84% 29.99 in 10.0 mi South 12.7 mph - 0.00 in   Overcast
3:51 AM 70.0 °F 64.9 °F 84% 29.99 in 10.0 mi South 12.7 mph - N/A   Overcast
4:51 AM 69.1 °F 64.9 °F 87% 29.99 in 10.0 mi South 11.5 mph - N/A   Overcast
5:51 AM 68.0 °F 66.0 °F 93% 29.99 in 9.0 mi South 9.2 mph - 0.00 in   Overcast
6:31 AM 68.0 °F 66.2 °F 94% 30.01 in 8.0 mi South 10.4 mph - N/A   Overcast
6:51 AM 68.0 °F 66.0 °F 93% 30.00 in 7.0 mi South 10.4 mph - N/A   Overcast
7:51 AM 69.1 °F 66.0 °F 90% 30.01 in 7.0 mi South 12.7 mph - N/A   Overcast
8:51 AM 70.0 °F 66.0 °F 87% 30.02 in 7.0 mi South 12.7 mph - N/A   Overcast
9:51 AM 71.1 °F 66.0 °F 84% 30.03 in 9.0 mi South 17.3 mph - N/A   Overcast
10:30 AM 73.4 °F 66.2 °F 78% 30.04 in 10.0 mi South 19.6 mph - N/A   Overcast
10:51 AM 73.0 °F 64.9 °F 76% 30.01 in 10.0 mi South 18.4 mph 25.3 mph N/A   Overcast
11:51 AM 75.9 °F 64.9 °F 69% 30.00 in 10.0 mi South 20.7 mph 27.6 mph N/A   Overcast
12:51 PM 75.9 °F 64.0 °F 67% 29.96 in 10.0 mi South 19.6 mph 26.5 mph N/A   Overcast
1:51 PM 75.9 °F 64.0 °F 67% 29.93 in 10.0 mi South 16.1 mph 24.2 mph N/A   Overcast
1:58 PM 75.2 °F 64.4 °F 69% 29.95 in 10.0 mi South 23.0 mph 26.5 mph N/A   Overcast
2:25 PM 75.2 °F 64.4 °F 69% 29.93 in 10.0 mi South 25.3 mph 29.9 mph N/A   Overcast
2:40 PM 75.2 °F 64.4 °F 69% 29.93 in 10.0 mi South 20.7 mph 27.6 mph N/A   Overcast
2:51 PM 75.0 °F 64.0 °F 69% 29.91 in 10.0 mi South 20.7 mph 25.3 mph N/A   Overcast
3:51 PM 75.0 °F 64.0 °F 69% 29.88 in 10.0 mi South 18.4 mph 27.6 mph N/A   Overcast
4:51 PM 73.9 °F 64.0 °F 71% 29.87 in 10.0 mi South 17.3 mph - N/A   Overcast
5:42 PM 73.4 °F 64.4 °F 73% 29.89 in 10.0 mi SSE 17.3 mph 24.2 mph N/A   Overcast
5:51 PM 73.0 °F 64.9 °F 76% 29.87 in 10.0 mi SSE 16.1 mph - N/A   Overcast
6:51 PM 72.0 °F 64.9 °F 78% 29.87 in 10.0 mi SSE 15.0 mph - N/A   Overcast
7:51 PM 72.0 °F 64.9 °F 78% 29.89 in 10.0 mi SSE 16.1 mph - N/A   Overcast
8:51 PM 72.0 °F 66.0 °F 81% 29.89 in 10.0 mi SSE 16.1 mph - N/A   Overcast
9:51 PM 71.1 °F 66.0 °F 84% 29.89 in 10.0 mi South 15.0 mph - N/A   Overcast
10:51 PM 71.1 °F 66.0 °F 84% 29.88 in 10.0 mi South 13.8 mph - N/A   Overcast
11:51 PM 71.1 °F 66.0 °F 84% 29.86 in 10.0 mi South 15.0 mph 25.3 mph N/A   Overcast